Погода в Ардахан

Турция     41°06′33″N   42°42′07″E
темп.,
°C
ветер,
м/с
пор.,
м/с
влажн.,
%
обл.,
%
осадки,
мм/ч
давл.,
гПа
погр.,
м
2 марта, вт
вт200:00−16с019950 0.0 103020
03:00−16ююз009851 0.0 103020
06:00−17ююв0097100 0.0 103220
09:00−12ю119098 0.0 103131
12:00−8ссз008242 0.0 1028172
15:00−7юв118123 0.0 1027174
18:00−13ю11878 0.0 102821
21:00−15ююз11944 0.0 103021
3 марта, ср
ср300:00−16ююз119315 0.0 103020
03:00−17ююз11888 0.0 102920
06:00−17ююз12930 0.0 102820
09:00−12юз11920 0.0 102737
12:00−7юз13860 0.0 1023338
15:00−5зсз248238 0.0 1022788
18:00−11зсз229047 0.0 102421
21:00−16зюз129724 0.1 102720
4 марта, чт
чт400:00−18ююз129940 0.0 102920
03:00−18ююз119960 0.0 103020
06:00−19ююз119961 0.0 103120
09:00−14ююв009345 0.0 103126
12:00−9св11842 0.0 1027181
15:00−7всв11841 0.0 1024193
18:00−13в11840 0.0 102521
21:00−14юв117648 0.0 102521
5 марта, пт
пт500:00−14ююв118180 0.0 102421
03:00−15зюз008686 0.0 102321
06:00−15ююз118786 0.0 102321
09:00−10юз118783 0.0 102330
12:00−5зюз11760 0.0 1021176
15:00−3зсз02820 0.0 1020303
18:00−10зюз11790 0.0 102321
21:00−13ююз12810 0.0 102721
6 марта, сб
сб600:00−14ююз22730 0.0 102721
03:00−14ююз12680 0.0 102821
06:00−15ююз12601 0.0 102821
09:00−9ю226418 0.0 102725
12:00−4ююв236913 0.0 1023112
15:00−2юв227756 0.0 1021143
18:00−6ююв2271100 0.0 102223
21:00−7ю2269100 0.0 102222